Regional Weather Roundup
Issued by NWS

Home | Current Version | Previous Version | Graphics & Text | Print | Product List | Glossary On
Versions: 1 2 3 4 5 6 7 8 9 10 11 12 13 14 15 16 17 18 19 20 21 22 23 24 25 26 27 28 29 30 31 32 33 34 35 36 37 38 39 40 41 42 43 44 45 46 47 48 49 50
000
ASUS43 KIND 030659
RWRIN

WEATHER ROUNDUP FOR INDIANA
NATIONAL WEATHER SERVICE INDIANAPOLIS IN
300 AM EDT MON AUG 03 2015

NOTE: "FAIR" INDICATES FEW OR NO CLOUDS BELOW 12,000 FEET WITH NO
SIGNIFICANT WEATHER AND/OR OBSTRUCTIONS TO VISIBILITY.

* - STATION DOES NOT REPORT WEATHER SUCH AS PRECIPITATION OR FOG.

+ - STATION NOT QUALITY CONTROLLED BY THE NATIONAL WEATHER SERVICE.
    USE DATA WITH CAUTION...ESPECIALLY DEWPOINT AND RELATIVE
    HUMIDITY OBSERVATIONS.

INZ001>003-010>013-019-020-030800-
NORTHWEST INDIANA

CITY           SKY/WX    TMP DP  RH WIND       PRES   REMARKS
KNOX *+        CLOUDY    64  64 100 NW5       29.70F
MONTICELLO +   HVY RAIN  64  64 100 NE3G17    29.81R

$$

LMZ046-743>745-030800-
SOUTHERN LAKE MICHIGAN

STATION/POSITION TIME  TEMP    WIND        PRES    WAVE
                       AIR SEA DIR/SP/G            HT
                 (UTC) (F)     (DEG/KT/KT) (MB)    (FT)
BURNS HARBOR     0600   68     250/  9/ 10 1007.8R
MICHIGAN CITY    0600   67     220/ 16/ 19   N/A
5NW MICH CITY    0600   69 73  270/ 16/ 21   N/A     4

$$

INZ004-005-014>016-021>024-030800-
NORTH CENTRAL INDIANA

CITY           SKY/WX    TMP DP  RH WIND       PRES   REMARKS
GOSHEN         LGT RAIN  64  62  93 S8        29.76R
PERU/GRISSOM   TSTM      64  63  94 N14G29    29.83F FOG
SOUTH BEND     CLOUDY    66  63  90 CALM      29.75F

$$

INZ006>009-017-018-025>027-030800-
NORTHEAST INDIANA

CITY           SKY/WX    TMP DP  RH WIND       PRES   REMARKS
ANGOLA *+      CLOUDY    63  61  94 S12       29.73F
FORT WAYNE     TSTM      63  61  93 SW5G15    29.86F FOG

$$

INZ028-029-035-036-043>045-051>053-030800-
WEST CENTRAL INDIANA

CITY           SKY/WX    TMP DP  RH WIND       PRES   REMARKS
CRAWFORDSVL +  MOCLDY    73  68  86 SW9         N/A
GREENCASTLE +  PTCLDY    73  64  73 S7        29.83F
LAFAYETTE      TSTM      76  71  85 SW7       29.75F
TERRE HAUTE    CLEAR     76  71  85 S10       29.81F

$$

INZ030>032-037>040-046>048-054>057-064-065-030800-
CENTRAL INDIANA

CITY           SKY/WX    TMP DP  RH WIND       PRES   REMARKS
GREENWOOD *+   PTCLDY    73  61  64 SW6       29.84F
INDIANAPOLIS   MOCLDY    75  65  70 S12       29.81F
-EAGLE CREEK   PTCLDY    76  66  71 S8G20     29.81F
KOKOMO *+      CLOUDY    66  57  72 N18       29.85R THUNDER
MT COMFORT *+  PTCLDY    72  61  68 S7        29.84S
SHELBYVILLE    PTCLDY    73  63  70 S9        29.83F

$$

INZ033-034-041-042-049-050-058-059-030800-
EAST CENTRAL INDIANA

CITY           SKY/WX    TMP DP  RH WIND       PRES   REMARKS
MUNCIE         MOCLDY    74  64  71 SW10      29.82S

$$

INZ060-061-067>069-081>083-085>088-030800-
SOUTHWEST INDIANA

CITY           SKY/WX    TMP DP  RH WIND       PRES   REMARKS
EVANSVILLE     CLEAR     75  67  76 SW5       29.87F
HUNTINGBURG *+ CLEAR     72  63  73 S8        29.87F

$$

INZ062-063-066-070>080-084-089>092-030800-
SOUTH CENTRAL AND SOUTHEAST INDIANA

CITY           SKY/WX    TMP DP  RH WIND       PRES   REMARKS
BLOOMINGTON    PTCLDY    74  65  73 SW5       29.85F
MADISON *+     CLEAR     68  61  77 S5        29.90S
SEYMOUR +      PTCLDY    68  64  88 S5        29.85F

$$



USA.gov is the U.S. government's official web portal to all federal, state and local government web resources and services.